Everett, WA

4:55 PM PST on February 23, 2018 (GMT -0800)
Snohomish County

Weather History for KPAE - February, 2012

Change the Weather History Date:

Monday, February 27, 2012

  Actual Average Record
Temperature  
Mean Temperature 34 °F -  
Max Temperature 41 °F 51 °F 64 °F (1992)
Min Temperature 28 °F 35 °F 20 °F (1962)
Degree Days  
Heating Degree Days 30    
Moisture  
Dew Point 23 °F    
Average Humidity 63    
Maximum Humidity 75    
Minimum Humidity 49    
Precipitation  
Precipitation 0.00 in - - ()
Sea Level Pressure  
Sea Level Pressure 30.14 in    
Wind  
Wind Speed 4 mph (North)    
Max Wind Speed 8 mph    
Max Gust Speed -    
Visibility 10 miles    
Events      
Averages and records for this station are not official NWS values.
T = Trace of Precipitation, MM = Missing Value Source: NWS Daily Summary

Daily Weather History Graph

Daily Weather History Graph

Search for Another Location

Airport or City:

Trip Planner

Search our weather history database for the weather conditions in past years. The results will help you decide how hot, cold, wet, or windy it might be!

Date:

Astronomy

Feb. 27, 2012 Rise Set
Actual Time 6:54 AM PST 5:50 PM PST
Civil Twilight 6:23 AM PST 6:21 PM PST
Nautical Twilight 5:47 AM PST 6:57 PM PST
Astronomical Twilight 5:11 AM PST 7:33 PM PST
Moon 8:57 AM PST (2/27) No Moon Set
Length of Visible Light 11h 57m
Length of Day
10h 55m
Waxing Crescent, 30% of the Moon is Illuminated
Feb 27
Waxing Crescent
Feb 29
First Quarter
Mar 8
Full
Mar 14
Last Quarter
Mar 22
New

Hourly Weather History & Observations

Time (PST) Temp. Windchill Dew Point Humidity Pressure Visibility Wind Dir Wind Speed Gust Speed Precip Events Conditions
12:53 AM 30.0 °F - 23.0 °F 75% 30.19 in 10.0 mi Calm Calm - N/A   Partly Cloudy
1:53 AM 30.9 °F 27.5 °F 21.9 °F 69% 30.21 in 10.0 mi North 3.5 mph - N/A   Overcast
2:53 AM 30.0 °F 25.2 °F 21.0 °F 69% 30.22 in 10.0 mi NNW 4.6 mph - N/A   Clear
3:53 AM 30.0 °F 25.2 °F 23.0 °F 75% 30.21 in 10.0 mi North 4.6 mph - N/A   Clear
4:53 AM 30.0 °F 22.4 °F 21.0 °F 69% 30.22 in 10.0 mi North 8.1 mph - N/A   Clear
5:53 AM 28.9 °F 25.2 °F 21.0 °F 72% 30.21 in 10.0 mi NE 3.5 mph - N/A   Clear
6:53 AM 28.0 °F 24.2 °F 19.9 °F 72% 30.21 in 10.0 mi NNW 3.5 mph - N/A   Clear
7:53 AM 30.0 °F 25.2 °F 21.9 °F 72% 30.22 in 10.0 mi North 4.6 mph - N/A   Clear
8:53 AM 32.0 °F 27.5 °F 23.0 °F 69% 30.22 in 10.0 mi North 4.6 mph - N/A   Clear
9:53 AM 35.1 °F 31.0 °F 23.0 °F 61% 30.22 in 10.0 mi NNE 4.6 mph - N/A   Clear
10:53 AM 35.1 °F 28.6 °F 23.0 °F 61% 30.21 in 10.0 mi North 8.1 mph - N/A   Clear
11:53 AM 36.0 °F 30.3 °F 21.9 °F 57% 30.20 in 10.0 mi Variable 6.9 mph - N/A   Clear
12:53 PM 37.9 °F - 21.0 °F 51% 30.17 in 10.0 mi Calm Calm - N/A   Clear
1:53 PM 41.0 °F - 23.0 °F 49% 30.13 in 10.0 mi Calm Calm - N/A   Clear
2:53 PM 39.9 °F 36.7 °F 23.0 °F 51% 30.10 in 10.0 mi West 4.6 mph - N/A   Clear
3:53 PM 39.9 °F 37.8 °F 21.9 °F 49% 30.09 in 10.0 mi NNW 3.5 mph - N/A   Clear
4:53 PM 39.0 °F 35.7 °F 23.0 °F 53% 30.08 in 10.0 mi NW 4.6 mph - N/A   Clear
5:53 PM 37.0 °F 34.5 °F 24.1 °F 59% 30.07 in 10.0 mi North 3.5 mph - N/A   Clear
6:53 PM 36.0 °F - 25.0 °F 64% 30.06 in 10.0 mi Calm Calm - N/A   Clear
7:53 PM 37.0 °F 33.3 °F 23.0 °F 57% 30.04 in 10.0 mi ENE 4.6 mph - N/A   Clear
8:53 PM 36.0 °F 32.1 °F 23.0 °F 59% 30.03 in 10.0 mi ESE 4.6 mph - N/A   Clear
9:53 PM 37.0 °F 33.3 °F 24.1 °F 59% 30.01 in 10.0 mi ESE 4.6 mph - N/A   Clear
10:53 PM 36.0 °F 32.1 °F 25.0 °F 64% 29.99 in 10.0 mi Variable 4.6 mph - N/A   Clear
11:53 PM 35.1 °F 30.1 °F 26.1 °F 70% 29.98 in 10.0 mi SSE 5.8 mph - N/A   Scattered Clouds